Weather reports worldwide

Advertisment
Ojmjakon, Russia (24688): temperature & dewpoint: 14.11.2018 06:00:00 - 20.11.2018 06:00:00 (MAGT)Ojmjakon, Russia (24688): wind speed: 14.11.2018 06:00:00 - 20.11.2018 06:00:00 (MAGT)Ojmjakon, Russia (24688): wind direction: 14.11.2018 06:00:00 - 20.11.2018 06:00:00 (MAGT)Ojmjakon, Russia (24688): reduced air pressure: 14.11.2018 06:00:00 - 20.11.2018 06:00:00 (MAGT)Ojmjakon, Russia (24688): visibility: 14.11.2018 06:00:00 - 20.11.2018 06:00:00 (MAGT)
Date & Time tt [°C] td [°C] ff [km/h] ff [kn] dd ppp [hPa] vv [km]
20.11.2018 06:00:00 - - - - - - -
20.11.2018 05:00:00 - - - - - - -
20.11.2018 04:00:00 -41,5 -43,1 0 0 N 1030,6 50
20.11.2018 03:00:00 - - - - - - -
20.11.2018 02:00:00 - - - - - - -
20.11.2018 01:00:00 -39,9 -41,5 0 0 N 1030,9 50
20.11.2018 00:00:00 - - - - - - -
19.11.2018 23:00:00 - - - - - - -
19.11.2018 22:00:00 -39,6 -41,0 0 0 N 1031,1 50
19.11.2018 21:00:00 - - - - - - -
19.11.2018 20:00:00 - - - - - - -
19.11.2018 19:00:00 -37,4 -38,8 0 0 N 1030,3 50
19.11.2018 18:00:00 - - - - - - -
19.11.2018 17:00:00 - - - - - - -
19.11.2018 16:00:00 -34,0 -35,5 4 2 WNW 1028,8 50
19.11.2018 15:00:00 - - - - - - -
19.11.2018 14:00:00 - - - - - - -
19.11.2018 13:00:00 -32,8 -34,4 4 2 NE 1028,7 50
19.11.2018 12:00:00 - - - - - - -
19.11.2018 11:00:00 - - - - - - -
19.11.2018 10:00:00 -33,8 -35,5 4 2 NNE 1029,8 20
19.11.2018 09:00:00 - - - - - - -
19.11.2018 08:00:00 - - - - - - -
19.11.2018 07:00:00 -31,5 -33,2 0 0 N 1028,7 20
19.11.2018 06:00:00 - - - - - - -
19.11.2018 05:00:00 - - - - - - -
19.11.2018 04:00:00 -29,9 -31,7 7 4 NE 1028,3 10
19.11.2018 03:00:00 - - - - - - -
19.11.2018 02:00:00 - - - - - - -
19.11.2018 01:00:00 -29,3 -31,1 7 4 NE 1028,2 20
19.11.2018 00:00:00 - - - - - - -
18.11.2018 23:00:00 - - - - - - -
18.11.2018 22:00:00 -29,5 -31,3 7 4 NNE 1028,8 20
18.11.2018 21:00:00 - - - - - - -
18.11.2018 20:00:00 - - - - - - -
18.11.2018 19:00:00 -29,0 -30,7 4 2 NE 1028,6 20
18.11.2018 18:00:00 - - - - - - -
18.11.2018 17:00:00 - - - - - - -
18.11.2018 16:00:00 -28,3 -30,0 4 2 NNE 1028,4 20
18.11.2018 15:00:00 - - - - - - -
18.11.2018 14:00:00 - - - - - - -
18.11.2018 13:00:00 -27,2 -28,3 0 0 N 1028,0 20
18.11.2018 12:00:00 - - - - - - -
18.11.2018 11:00:00 - - - - - - -
18.11.2018 10:00:00 -29,7 -31,5 0 0 N 1029,9 20
18.11.2018 09:00:00 - - - - - - -
18.11.2018 08:00:00 - - - - - - -
18.11.2018 07:00:00 -31,8 -33,4 0 0 N 1030,9 20
18.11.2018 06:00:00 - - - - - - -
18.11.2018 05:00:00 - - - - - - -
18.11.2018 04:00:00 -30,6 -32,3 0 0 N 1030,1 50
18.11.2018 03:00:00 - - - - - - -
18.11.2018 02:00:00 - - - - - - -
18.11.2018 01:00:00 -28,3 -29,4 0 0 N 1029,0 50
18.11.2018 00:00:00 - - - - - - -
17.11.2018 23:00:00 - - - - - - -
17.11.2018 22:00:00 -26,2 -27,4 0 0 N 1028,3 20
17.11.2018 21:00:00 - - - - - - -
17.11.2018 20:00:00 - - - - - - -
17.11.2018 19:00:00 -25,3 -27,0 0 0 N 1027,9 20
17.11.2018 18:00:00 - - - - - - -
17.11.2018 17:00:00 - - - - - - -
17.11.2018 16:00:00 -24,9 -26,7 4 2 NE 1027,5 20
17.11.2018 15:00:00 - - - - - - -
17.11.2018 14:00:00 - - - - - - -
17.11.2018 13:00:00 -25,1 -26,9 4 2 NNE 1027,6 20
17.11.2018 12:00:00 - - - - - - -
17.11.2018 11:00:00 - - - - - - -
17.11.2018 10:00:00 -25,4 -27,2 0 0 N 1028,3 2,0
17.11.2018 09:00:00 - - - - - - -
17.11.2018 08:00:00 - - - - - - -
17.11.2018 07:00:00 -26,2 -28,0 0 0 N 1028,3 50
17.11.2018 06:00:00 - - - - - - -
17.11.2018 05:00:00 - - - - - - -
17.11.2018 04:00:00 -26,7 -29,1 0 0 N 1028,4 50
17.11.2018 03:00:00 - - - - - - -
17.11.2018 02:00:00 - - - - - - -
17.11.2018 01:00:00 -27,2 -29,6 4 2 ESE 1028,4 50
17.11.2018 00:00:00 - - - - - - -
16.11.2018 23:00:00 - - - - - - -
16.11.2018 22:00:00 -27,9 -30,3 0 0 N 1028,7 50
16.11.2018 21:00:00 - - - - - - -
16.11.2018 20:00:00 - - - - - - -
16.11.2018 19:00:00 -29,9 -32,3 0 0 N 1029,5 50
16.11.2018 18:00:00 - - - - - - -
16.11.2018 17:00:00 - - - - - - -
16.11.2018 16:00:00 -26,8 -29,3 4 2 ENE 1028,1 50
16.11.2018 15:00:00 - - - - - - -
16.11.2018 14:00:00 - - - - - - -
16.11.2018 13:00:00 -26,4 -28,8 0 0 N 1027,8 50
16.11.2018 12:00:00 - - - - - - -
16.11.2018 11:00:00 - - - - - - -
16.11.2018 10:00:00 -30,1 -32,5 0 0 N 1030,4 50
16.11.2018 09:00:00 - - - - - - -
16.11.2018 08:00:00 - - - - - - -
16.11.2018 07:00:00 -30,8 -33,2 0 0 N 1031,2 50
16.11.2018 06:00:00 - - - - - - -
16.11.2018 05:00:00 - - - - - - -
16.11.2018 04:00:00 -30,5 -32,7 4 2 SW 1031,7 50
16.11.2018 03:00:00 - - - - - - -
16.11.2018 02:00:00 - - - - - - -
16.11.2018 01:00:00 -29,5 -31,9 0 0 N 1031,7 50
16.11.2018 00:00:00 - - - - - - -
15.11.2018 23:00:00 - - - - - - -
15.11.2018 22:00:00 -29,8 -32,1 4 2 WSW 1032,6 50
15.11.2018 21:00:00 - - - - - - -
15.11.2018 20:00:00 - - - - - - -
15.11.2018 19:00:00 -29,3 -31,7 4 2 WSW 1033,4 50
15.11.2018 18:00:00 - - - - - - -
15.11.2018 17:00:00 - - - - - - -
15.11.2018 16:00:00 -26,3 -28,0 4 2 NE 1032,5 50
15.11.2018 15:00:00 - - - - - - -
15.11.2018 14:00:00 - - - - - - -
15.11.2018 13:00:00 -25,8 -28,2 4 2 N 1033,3 50
15.11.2018 12:00:00 - - - - - - -
15.11.2018 11:00:00 - - - - - - -
15.11.2018 10:00:00 -29,9 -32,3 0 0 N 1036,9 50
15.11.2018 09:00:00 - - - - - - -
15.11.2018 08:00:00 - - - - - - -
15.11.2018 07:00:00 -21,8 -23,6 0 0 N 1026,6 20
15.11.2018 06:00:00 - - - - - - -
15.11.2018 05:00:00 - - - - - - -
15.11.2018 04:00:00 -31,9 -34,3 0 0 N 1038,5 50
15.11.2018 03:00:00 - - - - - - -
15.11.2018 02:00:00 - - - - - - -
15.11.2018 01:00:00 -31,1 -32,8 4 2 S 1038,2 50
15.11.2018 00:00:00 - - - - - - -
14.11.2018 23:00:00 - - - - - - -
14.11.2018 22:00:00 -28,5 -30,2 4 2 WSW 1037,3 50
14.11.2018 21:00:00 - - - - - - -
14.11.2018 20:00:00 - - - - - - -
14.11.2018 19:00:00 -23,9 -26,4 4 2 SE 1034,9 50
14.11.2018 18:00:00 - - - - - - -
14.11.2018 17:00:00 - - - - - - -
14.11.2018 16:00:00 -24,3 -26,8 0 0 N 1035,2 50
14.11.2018 15:00:00 - - - - - - -
14.11.2018 14:00:00 - - - - - - -
14.11.2018 13:00:00 -25,0 -27,4 0 0 N 1036,0 50
14.11.2018 12:00:00 - - - - - - -
14.11.2018 11:00:00 - - - - - - -
14.11.2018 10:00:00 -27,9 -30,3 0 0 N 1037,7 50
14.11.2018 09:00:00 - - - - - - -
14.11.2018 08:00:00 - - - - - - -
14.11.2018 07:00:00 -30,6 -32,9 0 0 N 1039,1 50
14.11.2018 06:00:00 - - - - - - -

tt = temperature
td = dewpoint
ff = wind speed
dd = wind direction
ppp = reduced air pressure
vv = visibility

Next stations